Weather History for Diyarbakir, Turkey

Change the Weather History Date:

Thursday, October 17, 2013

  Actual Average Record
Temperature  
Mean Temperature 64 °F -  
Max Temperature 81 °F 68 °F 86 °F (2003)
Min Temperature 46 °F 45 °F 46 °F (2000)
Degree Days  
Heating Degree Days 2    
Growing Degree Days 14 (Base 50)    
Moisture  
Dew Point 24 °F    
Average Humidity 23    
Maximum Humidity 43    
Minimum Humidity 5    
Precipitation  
Precipitation 0.00 in 0.06 in - ()
Sea Level Pressure  
Sea Level Pressure 29.96 in    
Wind  
Wind Speed 4 mph ()    
Max Wind Speed 16 mph    
Max Gust Speed -    
Visibility 9.0 miles    
Events      
Averages and records for this station are not official NWS values.
T = Trace of Precipitation, MM = Missing Value Source: Averaged Metar Reports

Daily Weather History Graph

Daily Weather History Graph

Search for Another Location

Airport:

Trip Planner

Search our weather history database for the weather conditions in past years. The results will help you decide how hot, cold, wet, or windy it might be!

Date:

Astronomy

Oct. 17, 2013 Rise Set
Actual Time 6:29 AM EEST 5:39 PM EEST
Civil Twilight 6:03 AM EEST 6:05 PM EEST
Nautical Twilight 5:32 AM EEST 6:36 PM EEST
Astronomical Twilight 5:02 AM EEST 7:06 PM EEST
Moon 4:39 PM EEST (10/17) 4:40 AM EEST (10/17)
Length of Visible Light 12h 02m
Length of Day
11h 09m
Waxing Gibbous, 97% of the Moon is Illuminated
Oct 17
Waxing Gibbous
Oct 19
Full
Oct 27
Last Quarter
Nov 3
New
Nov 10
First Quarter

Hourly Weather History & Observations

Time (EEST) Temp. Dew Point Humidity Pressure Visibility Wind Dir Wind Speed Gust Speed Precip Events Conditions
12:20 AM 55.4 °F 23.0 °F 29% 29.98 in - Calm Calm - N/A   Clear
12:50 AM 55.4 °F 23.0 °F 29% 29.98 in - ESE 3.5 mph - N/A   Clear
1:20 AM 53.6 °F 21.2 °F 28% 29.98 in - Variable 2.3 mph - N/A   Clear
1:50 AM 53.6 °F 23.0 °F 30% 29.98 in - Calm Calm - N/A   Clear
2:20 AM 51.8 °F 21.2 °F 30% 29.98 in - Calm Calm - N/A   Clear
2:50 AM 50.0 °F 19.4 °F 30% 29.98 in - West 4.6 mph - N/A   Clear
3:00 AM 50 °F 21 °F 20% 29.92 in 12 mi West 4.6 mph - -  
3:20 AM 48.2 °F 19.4 °F 32% 29.98 in - West 5.8 mph - N/A   Clear
3:50 AM 50.0 °F 19.4 °F 30% 29.98 in - WNW 3.5 mph - N/A   Clear
4:20 AM 50.0 °F 21.2 °F 32% 29.98 in - West 4.6 mph - N/A   Clear
4:50 AM 50.0 °F 21.2 °F 32% 29.98 in - NW 4.6 mph - N/A   Clear
5:20 AM 48.2 °F 21.2 °F 34% 29.98 in - WNW 4.6 mph - N/A   Clear
5:50 AM 48.2 °F 21.2 °F 34% 29.98 in - West 4.6 mph - N/A   Clear
6:20 AM 50.0 °F 23.0 °F 35% 29.98 in - NW 4.6 mph - N/A   Clear
6:50 AM 48.2 °F 23.0 °F 37% 29.98 in - Variable 1.2 mph - N/A   Clear
7:20 AM 50.0 °F 24.8 °F 37% 29.98 in - Variable 2.3 mph - N/A   Clear
7:50 AM 50.0 °F 28.4 °F 43% 30.01 in - ESE 6.9 mph - N/A   Clear
8:20 AM 55.4 °F 26.6 °F 33% 30.01 in - East 3.5 mph - N/A   Clear
8:50 AM 60.8 °F 26.6 °F 27% 30.01 in - Variable 1.2 mph - N/A   Clear
9:00 AM 61 °F 26 °F 15% 29.97 in 6 mi SE 1.2 mph - -  
9:20 AM 64.4 °F 26.6 °F 24% 30.01 in - Variable 1.2 mph - N/A   Clear
9:50 AM 66.2 °F 26.6 °F 23% 30.01 in - SW 3.5 mph - N/A   Clear
10:20 AM 69.8 °F 26.6 °F 20% 30.01 in - Variable 2.3 mph - N/A   Clear
10:50 AM 71.6 °F 26.6 °F 19% 30.01 in - East 3.5 mph - N/A   Clear
11:20 AM 71.6 °F 26.6 °F 19% 29.98 in - ENE 5.8 mph - N/A   Clear
11:50 AM 75.2 °F 28.4 °F 18% 29.98 in - East 4.6 mph - N/A   Clear
12:20 PM 77.0 °F 26.6 °F 16% 29.98 in - SE 5.8 mph - N/A   Clear
12:50 PM 77.0 °F 24.8 °F 14% 29.95 in - East 6.9 mph - N/A   Clear
1:20 PM 78.8 °F 24.8 °F 14% 29.95 in - Variable 5.8 mph - N/A   Clear
1:50 PM 80.6 °F 24.8 °F 13% 29.95 in - SSW 11.5 mph - N/A   Clear
2:20 PM 80.6 °F 24.8 °F 13% 29.92 in - SSW 16.1 mph - N/A   Clear
2:50 PM 80.6 °F 24.8 °F 13% 29.92 in - SW 15.0 mph - N/A   Clear
3:00 PM 81 °F 23 °F 5% 29.87 in 6 mi SW 15.0 mph - -  
3:20 PM 80.6 °F 23.0 °F 12% 29.92 in - South 15.0 mph - N/A   Clear
3:50 PM 78.8 °F 24.8 °F 14% 29.95 in - South 13.8 mph - N/A   Clear
4:20 PM 78.8 °F 23.0 °F 13% 29.92 in - South 12.7 mph - N/A   Clear
4:50 PM 77.0 °F 24.8 °F 14% 29.92 in - South 11.5 mph - N/A   Clear
5:20 PM 75.2 °F 24.8 °F 15% 29.92 in - South 8.1 mph - N/A   Clear
5:50 PM 73.4 °F 24.8 °F 16% 29.92 in - South 6.9 mph - N/A   Clear
6:20 PM 69.8 °F 26.6 °F 20% 29.95 in - South 3.5 mph - N/A   Clear
6:50 PM 68.0 °F 24.8 °F 20% 29.95 in - South 4.6 mph - N/A   Clear
7:20 PM 68.0 °F 26.6 °F 21% 29.95 in - East 3.5 mph - N/A   Clear
7:50 PM 62.6 °F 24.8 °F 24% 29.95 in - Calm Calm - N/A   Clear
8:20 PM 60.8 °F 23.0 °F 23% 29.95 in - Variable 1.2 mph - N/A   Clear
8:50 PM 60.8 °F 23.0 °F 23% 29.95 in - Variable 2.3 mph - N/A   Clear
9:00 PM 61 °F 22 °F 12% 29.92 in 12 mi SW 2.3 mph - -  
9:20 PM 60.8 °F 23.0 °F 23% 29.98 in - NW 3.5 mph - N/A   Clear
9:50 PM 59.0 °F 23.0 °F 25% 29.98 in - North 2.3 mph - N/A   Clear
10:20 PM 59.0 °F 24.8 °F 27% 29.98 in - East 4.6 mph - N/A   Clear
10:50 PM 59.0 °F 24.8 °F 27% 29.98 in - Calm Calm - N/A   Clear
11:20 PM 57.2 °F 26.6 °F 31% 29.95 in - NE 3.5 mph - N/A   Clear
11:50 PM 57.2 °F 24.8 °F 29% 29.95 in - Variable 2.3 mph - N/A   Clear